HERBERT ISLAND (AUT) current weather conditions

sailwx.info

Wind from 130 at 19 knots

Air temperature 7.7° C
Dewpoint 5.9° C

Last reported at 2019-Dec-06 19:00 UTC.
Time now 2019-Dec-06 20:12 UTC

Location: N 50°56' W 127°38'.
View on Google Maps.

See reports from other nearby stations

  
Tides and Currents Weather Stations Pressure Air Temp Water Temp Dewpoint Dewpoint Depression Visibility Wind Speed Wind Dir Waves Ship Positions
date/time (UTC)wind fromknots sea level pressurealtimeterstation pressurevisibilityair tempwater tempwave heightnotes
2019-Dec-06 19:00 130 19 7.7
2019-Dec-06 18:00 130 20 gusting 26 7.3
2019-Dec-06 17:00 130 24 gusting 32 7.3
2019-Dec-06 16:00 140 27 7.1
2019-Dec-06 15:00 130 27 7.6
2019-Dec-06 14:00 130 21 7.4
2019-Dec-06 13:00 140 25 gusting 29 6.5
2019-Dec-06 12:00 140 24 gusting 28 7.3
2019-Dec-06 11:00 140 26 7.2
2019-Dec-06 10:00 130 22 7.0
2019-Dec-06 09:00 130 21 7.1
2019-Dec-06 08:00 130 20 gusting 25 6.8
2019-Dec-06 07:00 110 14 6.4
2019-Dec-06 06:00 110 11 5.9
2019-Dec-06 05:00 080 7 5.3
2019-Dec-06 04:00 040 5 4.7
2019-Dec-06 03:00 070 2 4.5
2019-Dec-06 02:00 080 7 4.6
2019-Dec-06 01:00 090 9 4.6
2019-Dec-06 00:00 110 8 4.7
2019-Dec-05 23:00 110 14 5.1
2019-Dec-05 22:00 120 9 5.3
2019-Dec-05 21:00 120 9 5.0
2019-Dec-05 20:00 120 13 4.8
2019-Dec-05 19:00 130 13 4.8
2019-Dec-05 18:00 130 14 4.6
2019-Dec-05 17:00 110 13 4.0
2019-Dec-05 16:00 110 13 3.8
2019-Dec-05 15:00 120 12 3.8
2019-Dec-05 14:00 110 12 3.6
2019-Dec-05 13:00 120 12 2.5
2019-Dec-05 12:00 120 9 3.6
2019-Dec-05 11:00 120 9 2.5
2019-Dec-05 10:00 120 11 2.5
2019-Dec-05 09:00 110 7 3.9
2019-Dec-05 08:00 110 6 4.1
2019-Dec-05 07:00 100 7 4.0
2019-Dec-05 06:00 070 6 3.5
2019-Dec-05 05:00 090 6 4.6
2019-Dec-05 04:00 090 6 4.9
2019-Dec-05 03:00 100 6 5.4
2019-Dec-05 02:00 100 6 5.7
2019-Dec-05 01:00 330 7 6.3
2019-Dec-05 00:00 310 8 6.2
2019-Dec-04 23:00 330 6 6.3
2019-Dec-04 22:00 340 11 6.2
2019-Dec-04 21:00 330 13 6.3
2019-Dec-04 20:00 310 11 6.0